Chesterfield, MO

6:24 PM CDT on August 30, 2016 (GMT -0500)
Spirit Of Saint Louis

Weather History for KSUS - November, 2013

Change the Weather History Date:

Wednesday, November 13, 2013

  Actual Average Record
Temperature  
Mean Temperature 32 °F -  
Max Temperature 48 °F 54 °F 82 °F (1999)
Min Temperature 16 °F 33 °F 16 °F (2013)
Degree Days  
Heating Degree Days 33    
Moisture  
Dew Point 13 °F    
Average Humidity 51    
Maximum Humidity 84    
Minimum Humidity 17    
Precipitation  
Precipitation 0.00 in - - ()
Sea Level Pressure  
Sea Level Pressure 30.55 in    
Wind  
Wind Speed 3 mph (SSW)    
Max Wind Speed 10 mph    
Max Gust Speed -    
Visibility 10 miles    
Events      
Averages and records for this station are not official NWS values.
T = Trace of Precipitation, MM = Missing Value Source: NWS Daily Summary

Daily Weather History Graph

Daily Weather History Graph

Search for Another Location

Airport or City:

Trip Planner

Search our weather history database for the weather conditions in past years. The results will help you decide how hot, cold, wet, or windy it might be!

Date:

Astronomy

Nov. 13, 2013 Rise Set
Actual Time 6:42 AM CST 4:50 PM CST
Civil Twilight 6:14 AM CST 5:18 PM CST
Nautical Twilight 5:42 AM CST 5:50 PM CST
Astronomical Twilight 5:11 AM CST 6:22 PM CST
Moon 2:36 PM CST (11/13) 2:38 AM CST (11/13)
Length of Visible Light 11h 04m
Length of Day
10h 07m
Waxing Gibbous, 85% of the Moon is Illuminated
Nov 13
Waxing Gibbous
Nov 17
Full
Nov 25
Last Quarter
Dec 2
New
Dec 9
First Quarter

Hourly Weather History & Observations

Time (CST) Temp. Windchill Dew Point Humidity Pressure Visibility Wind Dir Wind Speed Gust Speed Precip Events Conditions
12:54 AM 18.0 °F - 14.0 °F 84% 30.73 in 10.0 mi Calm Calm - N/A   Clear
1:54 AM 18.0 °F - 14.0 °F 84% 30.73 in 10.0 mi Calm Calm - N/A   Clear
2:54 AM 17.1 °F - 12.9 °F 84% 30.72 in 10.0 mi Calm Calm - N/A   Clear
3:54 AM 17.1 °F - 12.9 °F 84% 30.69 in 10.0 mi Calm Calm - N/A   Clear
4:54 AM 17.1 °F - 12.9 °F 84% 30.71 in 10.0 mi Calm Calm - N/A   Clear
5:54 AM 16.0 °F - 12.0 °F 84% 30.71 in 10.0 mi Calm Calm - N/A   Clear
6:54 AM 17.1 °F - 12.9 °F 84% 30.71 in 10.0 mi Calm Calm - N/A   Clear
7:54 AM 21.9 °F - 17.1 °F 82% 30.71 in 10.0 mi Calm Calm - N/A   Clear
8:54 AM 30.0 °F - 18.0 °F 61% 30.69 in 10.0 mi Calm Calm - N/A   Clear
9:54 AM 35.1 °F 29.3 °F 14.0 °F 42% 30.66 in 10.0 mi SSW 6.9 mph - N/A   Clear
10:54 AM 37.9 °F 33.5 °F 14.0 °F 38% 30.63 in 10.0 mi South 5.8 mph - N/A   Clear
11:54 AM 41.0 °F 35.2 °F 12.0 °F 31% 30.58 in 10.0 mi South 9.2 mph - N/A   Scattered Clouds
12:54 PM 45.0 °F 39.7 °F 10.0 °F 24% 30.53 in 10.0 mi SW 10.4 mph - N/A   Scattered Clouds
1:54 PM 46.9 °F - 9.0 °F 21% 30.50 in 10.0 mi SSW 10.4 mph - N/A   Scattered Clouds
2:54 PM 48.0 °F - 5.0 °F 17% 30.47 in 10.0 mi SW 8.1 mph - N/A   Partly Cloudy
3:54 PM 48.0 °F - 7.0 °F 19% 30.44 in 10.0 mi SSW 6.9 mph - N/A   Clear
4:54 PM 42.1 °F - 10.9 °F 28% 30.43 in 10.0 mi Calm Calm - N/A   Scattered Clouds
5:54 PM 34.0 °F 31.0 °F 16.0 °F 48% 30.43 in 10.0 mi South 3.5 mph - N/A   Clear
6:54 PM 37.9 °F 33.5 °F 14.0 °F 38% 30.40 in 10.0 mi South 5.8 mph - N/A   Clear
7:54 PM 37.9 °F - 12.9 °F 36% 30.39 in 10.0 mi Calm Calm - N/A   Clear
8:54 PM 37.0 °F 31.6 °F 12.9 °F 37% 30.37 in 10.0 mi SSW 6.9 mph - N/A   Clear
9:54 PM 37.0 °F 31.6 °F 12.9 °F 37% 30.35 in 10.0 mi SSW 6.9 mph - N/A   Clear
10:54 PM 36.0 °F 30.3 °F 12.9 °F 39% 30.33 in 10.0 mi SSW 6.9 mph - N/A   Clear
11:54 PM 35.1 °F 29.3 °F 14.0 °F 42% 30.32 in 10.0 mi SSW 6.9 mph - N/A   Clear